• In Germany
  • List of Countries
  • For 7 days
  • Water Temperature
  • Satellite Maps
  • Weather Map
  • Weather Widgets
  • user-avatar
    Login

    Hourly Weather Tibissa

    Today, 24 June, Saturday

    Time Temperature Precipitation Wind Pressure Humidity
    00:00 +24°C° 0 mm 1 mps 690 mmHg 49%
    01:00 +23°C° 0 mm 1 mps 690 mmHg 51%
    02:00 +23°C° 0 mm 1 mps 689 mmHg 51%
    03:00 +22°C° 0 mm 1 mps 689 mmHg 52%
    04:00 +22°C° 0 mm 1 mps 689 mmHg 52%
    05:00 +21°C° 0 mm 0 mps 689 mmHg 49%
    06:00 +22°C° 0 mm 0 mps 689 mmHg 46%
    07:00 +23°C° 0 mm 0 mps 690 mmHg 43%
    08:00 +27°C° 0 mm 1 mps 690 mmHg 39%
    09:00 +28°C° 0 mm 1 mps 690 mmHg 36%
    10:00 +30°C° 0 mm 1 mps 690 mmHg 33%
    11:00 +31°C° 0 mm 1 mps 690 mmHg 31%
    12:00 +32°C° 0 mm 2 mps 690 mmHg 29%
    13:00 +32°C° 0 mm 2 mps 690 mmHg 28%
    14:00 +32°C° 0 mm 2 mps 690 mmHg 28%
    15:00 +32°C° 0 mm 2 mps 689 mmHg 28%
    16:00 +32°C° 0 mm 1 mps 689 mmHg 28%
    17:00 +31°C° 0 mm 2 mps 689 mmHg 29%
    18:00 +31°C° 0 mm 2 mps 689 mmHg 31%
    19:00 +30°C° 0 mm 2 mps 688 mmHg 32%
    20:00 +29°C° 0 mm 2 mps 688 mmHg 34%
    21:00 +28°C° 0 mm 2 mps 689 mmHg 37%
    22:00 +26°C° 0 mm 2 mps 689 mmHg 39%
    23:00 +26°C° 0 mm 2 mps 688 mmHg 41%

    Tomorrow, 25 June, Sunday

    Time Temperature Precipitation Wind Pressure Humidity
    00:00 +25°C° 0 mm 1 mps 688 mmHg 43%
    01:00 +24°C° 0 mm 1 mps 688 mmHg 45%
    02:00 +24°C° 0 mm 1 mps 688 mmHg 45%
    03:00 +23°C° 0 mm 1 mps 687 mmHg 46%
    04:00 +23°C° 0 mm 1 mps 687 mmHg 47%
    05:00 +24°C° 0 mm 1 mps 687 mmHg 44%
    06:00 +25°C° 0 mm 1 mps 688 mmHg 41%
    07:00 +26°C° 0 mm 1 mps 688 mmHg 38%
    08:00 +28°C° 0 mm 2 mps 688 mmHg 34%
    09:00 +30°C° 0 mm 2 mps 689 mmHg 30%
    10:00 +33°C° 0 mm 3 mps 689 mmHg 26%
    11:00 +34°C° 0 mm 3 mps 689 mmHg 23%
    12:00 +35°C° 0 mm 3 mps 689 mmHg 21%
    13:00 +36°C° 0 mm 3 mps 689 mmHg 19%
    14:00 +36°C° 0 mm 3 mps 688 mmHg 18%
    15:00 +36°C° 0 mm 3 mps 688 mmHg 18%
    16:00 +37°C° 0 mm 3 mps 687 mmHg 17%
    17:00 +36°C° 0 mm 3 mps 687 mmHg 18%
    18:00 +35°C° 0 mm 3 mps 687 mmHg 20%
    19:00 +34°C° 0 mm 4 mps 687 mmHg 21%
    20:00 +31°C° 0 mm 3 mps 687 mmHg 24%
    21:00 +29°C° 0 mm 2 mps 687 mmHg 28%
    22:00 +28°C° 0 mm 2 mps 687 mmHg 31%
    23:00 +27°C° 0 mm 2 mps 686 mmHg 32%

    Day after tomorrow, 26 June, Monday

    Time Temperature Precipitation Wind Pressure Humidity
    00:00 +26°C° 0 mm 1 mps 686 mmHg 34%
    01:00 +26°C° 0 mm 1 mps 686 mmHg 35%
    02:00 +25°C° 0 mm 1 mps 686 mmHg 36%
    03:00 +25°C° 0 mm 2 mps 685 mmHg 36%
    04:00 +25°C° 0 mm 2 mps 685 mmHg 37%
    05:00 +26°C° 0 mm 2 mps 685 mmHg 35%
    06:00 +27°C° 0 mm 2 mps 686 mmHg 33%
    07:00 +28°C° 0 mm 2 mps 686 mmHg 31%
    08:00 +30°C° 0 mm 3 mps 686 mmHg 27%
    09:00 +33°C° 0 mm 3 mps 687 mmHg 23%
    10:00 +36°C° 0 mm 4 mps 687 mmHg 18%
    11:00 +37°C° 0 mm 4 mps 687 mmHg 17%
    12:00 +38°C° 0 mm 4 mps 687 mmHg 15%
    13:00 +39°C° 0 mm 3 mps 687 mmHg 13%
    14:00 +39°C° 0 mm 3 mps 687 mmHg 13%
    15:00 +40°C° 0 mm 4 mps 686 mmHg 13%
    16:00 +41°C° 0 mm 4 mps 686 mmHg 12%
    17:00 +38°C° 0 mm 4 mps 686 mmHg 14%
    18:00 +37°C° 0 mm 4 mps 685 mmHg 15%
    19:00 +36°C° 0 mm 4 mps 685 mmHg 17%
    20:00 +35°C° 0 mm 4 mps 685 mmHg 19%
    21:00 +33°C° 0 mm 3 mps 686 mmHg 21%
    22:00 +31°C° 0 mm 3 mps 686 mmHg 23%
    23:00 +30°C° 0 mm 2 mps 686 mmHg 24%

    27 June, Tuesday

    Time Temperature Precipitation Wind Pressure Humidity
    00:00 +30°C° 0 mm 2 mps 686 mmHg 25%
    01:00 +29°C° 0 mm 1 mps 686 mmHg 26%
    02:00 +28°C° 0 mm 1 mps 685 mmHg 27%
    03:00 +28°C° 0 mm 1 mps 685 mmHg 28%
    04:00 +27°C° 0 mm 1 mps 685 mmHg 29%
    05:00 +28°C° 0 mm 1 mps 685 mmHg 27%
    06:00 +29°C° 0 mm 1 mps 686 mmHg 25%
    07:00 +31°C° 0 mm 1 mps 686 mmHg 23%
    08:00 +33°C° 0 mm 1 mps 686 mmHg 20%
    09:00 +36°C° 0 mm 2 mps 687 mmHg 17%
    10:00 +38°C° 0 mm 2 mps 687 mmHg 14%
    11:00 +39°C° 0 mm 3 mps 687 mmHg 13%
    12:00 +40°C° 0 mm 3 mps 687 mmHg 12%
    13:00 +42°C° 0 mm 3 mps 687 mmHg 12%
    14:00 +42°C° 0 mm 3 mps 687 mmHg 12%
    15:00 +40°C° 0 mm 3 mps 686 mmHg 13%
    16:00 +40°C° 0 mm 3 mps 686 mmHg 13%
    17:00 +39°C° 0.1 mm 3 mps 686 mmHg 15%
    18:00 +38°C° 0.1 mm 3 mps 686 mmHg 16%
    19:00 +37°C° 0.1 mm 2 mps 686 mmHg 18%
    20:00 +35°C° 0.1 mm 2 mps 686 mmHg 21%
    21:00 +34°C° 0.1 mm 2 mps 686 mmHg 23%
    22:00 +31°C° 0.1 mm 2 mps 686 mmHg 25%
    23:00 +30°C° 0.1 mm 1 mps 686 mmHg 28%

    28 June, Wednesday

    Time Temperature Precipitation Wind Pressure Humidity
    00:00 +29°C° 0.1 mm 1 mps 686 mmHg 31%
    01:00 +28°C° 0.1 mm 1 mps 686 mmHg 33%
    02:00 +28°C° 0.4 mm 1 mps 686 mmHg 35%
    03:00 +27°C° 0.4 mm 1 mps 685 mmHg 38%
    04:00 +27°C° 0.4 mm 1 mps 685 mmHg 40%
    05:00 +27°C° 0.1 mm 1 mps 685 mmHg 38%
    06:00 +28°C° 0.1 mm 1 mps 685 mmHg 36%
    07:00 +29°C° 0.1 mm 1 mps 686 mmHg 34%
    08:00 +32°C° 0 mm 2 mps 686 mmHg 28%
    09:00 +35°C° 0 mm 3 mps 686 mmHg 23%
    10:00 +38°C° 0 mm 3 mps 686 mmHg 17%
    11:00 +40°C° 0 mm 4 mps 686 mmHg 15%
    12:00 +41°C° 0 mm 5 mps 686 mmHg 14%
    13:00 +42°C° 0 mm 6 mps 686 mmHg 12%
    14:00 +42°C° 0 mm 6 mps 686 mmHg 12%
    15:00 +42°C° 0 mm 6 mps 685 mmHg 12%
    16:00 +41°C° 0 mm 6 mps 685 mmHg 12%
    17:00 +40°C° 0 mm 5 mps 685 mmHg 14%
    18:00 +39°C° 0 mm 5 mps 684 mmHg 15%
    19:00 +37°C° 0 mm 4 mps 684 mmHg 16%
    20:00 +36°C° 0 mm 4 mps 684 mmHg 18%
    21:00 +34°C° 0 mm 4 mps 684 mmHg 19%
    22:00 +33°C° 0 mm 4 mps 684 mmHg 20%
    23:00 +32°C° 0 mm 4 mps 684 mmHg 21%

    29 June, Thursday

    Time Temperature Precipitation Wind Pressure Humidity
    00:00 +31°C° 0 mm 3 mps 683 mmHg 22%
    01:00 +30°C° 0 mm 3 mps 683 mmHg 23%
    02:00 +30°C° 0 mm 3 mps 683 mmHg 24%
    03:00 +29°C° 0 mm 3 mps 683 mmHg 25%
    04:00 +28°C° 0 mm 3 mps 682 mmHg 26%
    05:00 +29°C° 0 mm 3 mps 683 mmHg 26%
    06:00 +29°C° 0 mm 3 mps 683 mmHg 25%
    07:00 +30°C° 0 mm 3 mps 684 mmHg 24%
    08:00 +33°C° 0 mm 4 mps 684 mmHg 21%
    09:00 +36°C° 0 mm 5 mps 685 mmHg 17%
    10:00 +39°C° 0 mm 6 mps 685 mmHg 13%
    11:00 +40°C° 0 mm 7 mps 685 mmHg 12%
    12:00 +40°C° 0 mm 8 mps 685 mmHg 11%
    13:00 +41°C° 0 mm 8 mps 685 mmHg 10%
    14:00 +41°C° 0 mm 8 mps 685 mmHg 10%
    15:00 +41°C° 0 mm 8 mps 684 mmHg 10%
    16:00 +41°C° 0 mm 8 mps 684 mmHg 10%
    17:00 +39°C° 0 mm 7 mps 684 mmHg 14%
    18:00 +36°C° 0 mm 6 mps 684 mmHg 18%
    19:00 +35°C° 0 mm 4 mps 684 mmHg 22%
    20:00 +32°C° 0 mm 4 mps 684 mmHg 32%
    21:00 +29°C° 0 mm 4 mps 684 mmHg 42%
    22:00 +26°C° 0 mm 4 mps 685 mmHg 52%
    23:00 +25°C° 0 mm 4 mps 685 mmHg 57%
    Show more